AMC-11 (GE-11)

Last updated on Jan. 20, 2021, 6:22 a.m. UTC

1 28252U 04017A   21019.66439045  .00000074  00000-0  00000-0 0  9992
2 28252   0.0353 305.5397 0002759   5.4549 276.4427  1.00274772 61081
UTC
Height (km)
Latitude
Longitude
Inclination
Orbital Period
UTC large
Height (km)
Speed (km/s)
/
Latitude / Longitude
Inclination (degrees)
Orbital Period (minutes)
Azimuth
Elevation
Range (km)
Doppler Factor
iOS Compass Heading
iOS Angle

Next 30 passes for location: Hong Kong

Rise time Rise Azimuth (degrees) Set time Set Azimuth (degrees) Duration Max altitude (degrees)

No matching passes for this satellites